SNEZKA Weather Reports


time (UTC)temp
F
wind
direction
speed
knots
gust
knots
rain 1hr
in
rain 24hr
in
rain mn
in
humidity
%
barometer
mb
20240723042011 46 320 19.1 0.0 0.00 0.00 0.00 87
20240723032013 48 320 31.3 0.0 0.00 0.00 0.00 81
20240723022013 48 320 31.3 0.0 0.00 0.00 0.00 87
20240723012010 48 320 26.9 0.0 0.00 0.00 0.00 93
20240723002011 48 310 25.2 0.0 0.00 0.00 0.00 99
20240722232011 48 320 19.1 0.0 0.00 0.00 0.00 99
20240722222010 50 340 17.4 0.0 0.00 0.00 0.00 99
20240722212012 50 340 25.2 0.0 0.00 0.00 0.00 99
20240722202011 50 320 22.6 0.0 0.00 0.00 0.00 99
20240722192013 50 310 22.6 0.0 0.00 0.00 0.00 99
20240722182013 54 320 19.1 0.0 0.00 0.00 0.00 99
20240722172011 54 330 15.6 0.0 0.00 0.00 0.00 99
20240722152059 55 320 17.4 0.0 0.00 0.00 0.00 93
20240722142115 54 320 13.9 0.0 0.00 0.00 0.00 99
20240722132059 55 310 10.4 0.0 0.00 0.00 0.00 99
20240722122058 55 300 7.8 0.0 0.00 0.00 0.00 99
20240722112028 57 300 10.4 0.0 0.00 0.00 0.00 93
20240722102012 55 250 6.1 0.0 0.00 0.00 0.00 93
20240722092028 57 290 6.1 0.0 0.00 0.00 0.00 82
20240722082029 55 360 1.7 0.0 0.00 0.00 0.00 71
20240722072044 55 210 6.1 0.0 0.00 0.00 0.00 71
20240722062018 59 300 10.4 0.0 0.00 0.00 0.00 54
20240722052012 57 270 7.8 0.0 0.00 0.00 0.00 82